Time,TemperatureF,DewpointF,PressureIn,WindDirection,WindDirectionDegrees,WindSpeedMPH,WindSpeedGustMPH,Humidity,HourlyPrecipIn,Conditions,Clouds,dailyrainin,SoftwareType,DateUTC
2013-05-17 00:32:00,68.0,-99.9,-100.00,ENE,58,1.0,7.0,-999,-99.99,,,-99.99,,2013-05-17 06:32:00,
2013-05-17 00:42:00,68.0,-99.9,-100.00,ENE,58,1.0,7.0,-999,-99.99,,,-99.99,,2013-05-17 06:42:00,
2013-05-17 00:52:00,67.0,-99.9,-100.00,NE,55,0.0,3.0,-999,-99.99,,,-99.99,,2013-05-17 06:52:00,
2013-05-17 01:03:00,67.0,-99.9,-100.00,NE,55,0.0,3.0,-999,-99.99,,,-99.99,,2013-05-17 07:03:00,
2013-05-17 01:32:00,65.0,-99.9,-100.00,ESE,102,1.0,4.0,-999,-99.99,,,-99.99,,2013-05-17 07:32:00,
2013-05-17 01:43:00,65.0,-99.9,-100.00,ESE,102,1.0,4.0,-999,-99.99,,,-99.99,,2013-05-17 07:43:00,
2013-05-17 01:53:00,65.0,-99.9,-100.00,ESE,102,1.0,4.0,-999,-99.99,,,-99.99,,2013-05-17 07:53:00,
2013-05-17 03:02:00,58.0,-99.9,-100.00,East,96,5.0,5.0,-999,-99.99,,,-99.99,,2013-05-17 09:02:00,
2013-05-17 03:12:00,58.0,-99.9,-100.00,East,96,5.0,5.0,-999,-99.99,,,-99.99,,2013-05-17 09:12:00,
2013-05-17 03:23:00,58.0,-99.9,-100.00,East,96,5.0,5.0,-999,-99.99,,,-99.99,,2013-05-17 09:23:00,
2013-05-17 03:53:00,60.0,-99.9,-100.00,ENE,78,2.0,2.0,-999,-99.99,,,-99.99,,2013-05-17 09:53:00,
2013-05-17 04:03:00,60.0,-99.9,-100.00,ENE,78,2.0,2.0,-999,-99.99,,,-99.99,,2013-05-17 10:03:00,
2013-05-17 05:53:00,62.0,-99.9,-100.00,East,101,1.0,1.0,-999,-99.99,,,-99.99,,2013-05-17 11:53:00,
2013-05-17 06:03:00,62.0,-99.9,-100.00,East,101,1.0,1.0,-999,-99.99,,,-99.99,,2013-05-17 12:03:00,
2013-05-17 06:12:00,62.0,-99.9,-100.00,East,101,1.0,1.0,-999,-99.99,,,-99.99,,2013-05-17 12:12:00,
2013-05-17 06:40:00,62.0,-99.9,-100.00,ESE,103,1.0,4.0,-999,-99.99,,,-99.99,,2013-05-17 12:40:00,
2013-05-17 07:04:00,58.0,-99.9,-100.00,East,79,2.0,3.0,-999,-99.99,,,-99.99,,2013-05-17 13:04:00,
2013-05-17 07:12:00,58.0,-99.9,-100.00,East,79,2.0,3.0,-999,-99.99,,,-99.99,,2013-05-17 13:12:00,
2013-05-17 07:23:00,62.0,-99.9,-100.00,ESE,103,1.0,4.0,-999,-99.99,,,-99.99,,2013-05-17 13:23:00,
2013-05-17 07:33:00,62.0,-99.9,-100.00,ESE,103,1.0,4.0,-999,-99.99,,,-99.99,,2013-05-17 13:33:00,
2013-05-17 08:02:00,62.0,-99.9,-100.00,East,92,3.0,3.0,-999,-99.99,,,-99.99,,2013-05-17 14:02:00,
2013-05-17 08:13:00,62.0,-99.9,-100.00,East,92,3.0,3.0,-999,-99.99,,,-99.99,,2013-05-17 14:13:00,
2013-05-17 08:25:00,70.0,-99.9,-100.00,WSW,258,0.0,1.0,-999,-99.99,,,-99.99,,2013-05-17 14:25:00,
2013-05-17 09:03:00,70.0,-99.9,-100.00,WSW,258,0.0,1.0,-999,-99.99,,,-99.99,,2013-05-17 15:03:00,
2013-05-17 09:14:00,70.0,-99.9,-100.00,WSW,258,0.0,1.0,-999,-99.99,,,-99.99,,2013-05-17 15:14:00,
2013-05-17 10:08:00,76.0,-99.9,-100.00,South,179,1.0,3.0,-999,-99.99,,,-99.99,,2013-05-17 16:08:00,
2013-05-17 10:14:00,76.0,-99.9,-100.00,South,179,1.0,3.0,-999,-99.99,,,-99.99,,2013-05-17 16:14:00,
2013-05-17 10:15:00,78.0,-99.9,-100.00,WNW,287,1.0,5.0,-999,-99.99,,,-99.99,,2013-05-17 16:15:00,
2013-05-17 10:40:00,82.0,-99.9,-100.00,WNW,292,2.0,5.0,-999,-99.99,,,-99.99,,2013-05-17 16:40:00,
2013-05-17 10:57:00,78.0,-99.9,-100.00,WNW,287,1.0,5.0,-999,-99.99,,,-99.99,,2013-05-17 16:57:00,
2013-05-17 11:08:00,78.0,-99.9,-100.00,WNW,287,1.0,5.0,-999,-99.99,,,-99.99,,2013-05-17 17:08:00,
2013-05-17 11:30:00,82.0,-99.9,-100.00,WNW,292,2.0,5.0,-999,-99.99,,,-99.99,,2013-05-17 17:30:00,
2013-05-17 11:55:00,83.0,-99.9,-100.00,WNW,284,5.0,6.0,-999,-99.99,,,-99.99,,2013-05-17 17:55:00,
2013-05-17 12:35:00,86.0,-99.9,-100.00,WSW,249,3.0,5.0,-999,-99.99,,,-99.99,,2013-05-17 18:35:00,
2013-05-17 12:41:00,83.0,-99.9,-100.00,WNW,284,5.0,6.0,-999,-99.99,,,-99.99,,2013-05-17 18:41:00,
2013-05-17 12:51:00,-999.0,-99.9,-100.00,WNW,284,5.0,6.0,-999,-99.99,,,-99.99,,2013-05-17 18:51:00,
2013-05-17 13:31:00,86.0,-99.9,-100.00,WSW,249,3.0,5.0,-999,-99.99,,,-99.99,,2013-05-17 19:31:00,
2013-05-17 13:40:00,88.0,-99.9,-100.00,SSW,213,0.0,2.0,-999,-99.99,,,-99.99,,2013-05-17 19:40:00,
2013-05-17 14:05:00,85.0,-99.9,-100.00,SSE,151,0.0,4.0,-999,-99.99,,,-99.99,,2013-05-17 20:05:00,
2013-05-17 14:30:00,88.0,-99.9,-100.00,SSW,213,0.0,2.0,-999,-99.99,,,-99.99,,2013-05-17 20:30:00,
2013-05-17 14:58:00,85.0,-99.9,-100.00,SSE,151,0.0,4.0,-999,-99.99,,,-99.99,,2013-05-17 20:58:00,
2013-05-17 15:50:00,91.0,-99.9,-100.00,ESE,110,3.0,5.0,-999,-99.99,,,-99.99,,2013-05-17 21:50:00,
2013-05-17 16:38:00,91.0,-99.9,-100.00,ESE,110,3.0,5.0,-999,-99.99,,,-99.99,,2013-05-17 22:38:00,
2013-05-17 16:45:00,90.0,-99.9,-100.00,SSW,194,2.0,4.0,-999,-99.99,,,-99.99,,2013-05-17 22:45:00,
2013-05-17 16:47:00,91.0,-99.9,-100.00,ESE,110,3.0,5.0,-999,-99.99,,,-99.99,,2013-05-17 22:47:00,
2013-05-17 17:10:00,89.0,-99.9,-100.00,SSW,213,3.0,7.0,-999,-99.99,,,-99.99,,2013-05-17 23:10:00,
2013-05-17 17:23:00,90.0,-99.9,-100.00,SSW,194,2.0,4.0,-999,-99.99,,,-99.99,,2013-05-17 23:23:00,
2013-05-17 17:38:00,90.0,-99.9,-100.00,SSW,194,2.0,4.0,-999,-99.99,,,-99.99,,2013-05-17 23:38:00,
2013-05-17 17:54:00,89.0,-99.9,-100.00,SSW,213,3.0,7.0,-999,-99.99,,,-99.99,,2013-05-17 23:54:00,
2013-05-17 18:02:00,89.0,-99.9,-100.00,SSW,213,3.0,7.0,-999,-99.99,,,-99.99,,2013-05-18 00:02:00,
2013-05-17 18:54:00,87.0,-99.9,-100.00,SSE,152,3.0,5.0,-999,-99.99,,,-99.99,,2013-05-18 00:54:00,
2013-05-17 19:03:00,87.0,-99.9,-100.00,SSE,152,3.0,5.0,-999,-99.99,,,-99.99,,2013-05-18 01:03:00,
2013-05-17 19:24:00,87.0,-99.9,-100.00,SSE,158,2.0,4.0,-999,-99.99,,,-99.99,,2013-05-18 01:24:00,
2013-05-17 19:32:00,86.0,-99.9,-100.00,ESE,114,3.0,6.0,-999,-99.99,,,-99.99,,2013-05-18 01:32:00,
2013-05-17 19:43:00,86.0,-99.9,-100.00,ESE,114,3.0,6.0,-999,-99.99,,,-99.99,,2013-05-18 01:43:00,
2013-05-17 19:52:00,86.0,-99.9,-100.00,ESE,109,3.0,5.0,-999,-99.99,,,-99.99,,2013-05-18 01:52:00,
2013-05-17 20:03:00,86.0,-99.9,-100.00,ESE,109,3.0,5.0,-999,-99.99,,,-99.99,,2013-05-18 02:03:00,
2013-05-17 20:40:00,82.0,-99.9,-100.00,East,95,4.0,4.0,-999,-99.99,,,-99.99,,2013-05-18 02:40:00,
2013-05-17 20:54:00,83.0,-99.9,-100.00,East,82,4.0,6.0,-999,-99.99,,,-99.99,,2013-05-18 02:54:00,
2013-05-17 21:03:00,83.0,-99.9,-100.00,East,82,4.0,6.0,-999,-99.99,,,-99.99,,2013-05-18 03:03:00,
2013-05-17 21:23:00,82.0,-99.9,-100.00,East,95,4.0,4.0,-999,-99.99,,,-99.99,,2013-05-18 03:23:00,
2013-05-17 21:33:00,82.0,-99.9,-100.00,East,95,4.0,4.0,-999,-99.99,,,-99.99,,2013-05-18 03:33:00,
2013-05-17 22:03:00,78.0,-99.9,-100.00,ESE,119,2.0,3.0,-999,-99.99,,,-99.99,,2013-05-18 04:03:00,
2013-05-17 22:13:00,78.0,-99.9,-100.00,ESE,119,2.0,3.0,-999,-99.99,,,-99.99,,2013-05-18 04:13:00,
2013-05-17 23:02:00,76.0,-99.9,-100.00,ENE,78,3.0,4.0,-999,-99.99,,,-99.99,,2013-05-18 05:02:00,
2013-05-17 23:13:00,76.0,-99.9,-100.00,ENE,78,3.0,4.0,-999,-99.99,,,-99.99,,2013-05-18 05:13:00,
2013-05-17 23:22:00,74.0,-99.9,-100.00,ENE,66,1.0,2.0,-999,-99.99,,,-99.99,,2013-05-18 05:22:00,
2013-05-17 23:32:00,73.0,-99.9,-100.00,ESE,104,0.0,5.0,-999,-99.99,,,-99.99,,2013-05-18 05:32:00,
2013-05-17 23:42:00,73.0,-99.9,-100.00,ESE,104,0.0,5.0,-999,-99.99,,,-99.99,,2013-05-18 05:42:00,
2013-05-17 23:52:00,73.0,-99.9,-100.00,ESE,104,0.0,5.0,-999,-99.99,,,-99.99,,2013-05-18 05:52:00,